SL-16 DEB, 29100

Orbit data source: Space-Track

SL-16 DEB, 29100 is space debris in LEO originally from a launch on Fri, 26 Mar 1993 UTC launched from the Tyuratam Missile And Space Complex (TTMTR). Debris objects in space refer to the collection of defunct objects orbiting the Earth. Examples of debris include non-operational satellites, rocket bodies, and fragments generated from explosions, collisions, or faulty payload assembly.

Loading next visibility...
Identifier
29100, 1993-016AP
Orbit
LEO
Last TLE update
6 days ago
Origin
Manufacturer
Unknown
Mission
Spacecraft
Bus & Motor
Unknown
Mass
Unknown
Launch date (UTC)
1993-03-26 (32 years ago)
Launch vehicle
Unknown
Launch site
Tyuratam Missile And Space Complex (TTMTR)
Object type
Payload
Rocket body
Debris
Shape & HBR
Unknown
Radar Cross Section
Small (<0.1 m²)

Expand to show TLE details & history

TLE from 6 days ago
0 SL-16 DEB
1 29100U 93016AP  25184.10619419  .00000790  00000-0  45048-3 0  9992
2 29100  70.7291  92.4117 0073325 228.4734 131.0080 14.11602212182143
Epoch: 2025-07-03T02:32Z
TLE epoch observation values (Epoch: 2025-07-03T02:32:55.178Z)
Latitude
-0.00004°
Longitude
132.80407°
Altitude
891.293 km
Speed
7.389 km/s
True Right ascension
06h 09m 38s
True Declination
0° 00' 00"
Sunlit
Object was in daylight at epoch
Visualization orbit readout
Latitude
60.9228°
Longitude
-99.00464°
Altitude
878.903 km
Speed
7.411 km/s
Apparent Right ascension
10h 02m 46s
Apparent Declination
25° 01' 28"
Sunlit
Object is in daylight
Visualization observer readout
Local Sidereal Time
19:12:07
Azimuth
320.766° NNW
Elevation
-13.865°
Doppler factor
1
Orbital elements
Apogee altitude
904.863 km
Perigee altitude
798.835 km
Semi-major axis
7,229.986 km
Eccentricity
0.00733
Inclination
70.7291°
RAAN
92.4117°
Arg. of periapsis
228.4734°
True anomaly
Unknown
Mean anomaly
131.008°
Eccentric anomaly
Unknown
Mean motion
3.53051 °/min
Orbital period
101.97 mins
BSTAR
0.00045048
Loading maneuver chart data...
Loading SW <> Apogee altitude chart data...
Loading historical data...
Loading historical data...
Loading historical data...
Loading historical data...
Loading historical data...
Loading historical data...
Loading historical data...

SL-16 DEB Visibility forecast

Observer location: undefined°, undefined°

Span
Click to sort rows by Start time (UTC) header in descending order
Start Az.
Max El. time (UTC)
Max El. Az.
Max El.
End time (UTC)
End Az.
8 mins2025-07-09 16:49:41.289Z146.308° SSE2025-07-09 16:53:41.289Z102.151° ESE20.253°2025-07-09 16:57:41.289Z56.428° ENE
9 mins2025-07-09 18:33:41.289Z225.517° WSW2025-07-09 18:37:41.289Z296.705° NW39.526°2025-07-09 18:42:41.289Z12.875° NNE
9 mins2025-07-10 03:29:41.289Z344.316° N2025-07-10 03:33:41.289Z50.919° ENE42.767°2025-07-10 03:38:41.289Z146.757° SSE
4 mins2025-07-10 05:15:41.289Z283.456° WNW2025-07-10 05:17:41.289Z259.733° W14.875°2025-07-10 05:19:41.289Z236.459° WSW
|